Terminal Aerodrome Forecast
Issued by NWS Greer, SC

Home | Current Version | Previous Version | Text Only | Print | Product List | Glossary On
Versions: 1 2 3 4 5 6 7 8 9 10 11 12 13 14 15 16 17 18 19 20 21 22 23 24 25 26 27 28 29 30 31 32 33 34 35 36 37 38 39 40 41 42 43 44 45 46 47 48 49 50
000
FTUS42 KGSP 262339
TAFCLT
TAF
KCLT 262339Z 2700/2724 03008KT P6SM SCT019 OVC070
      TEMPO 2700/2701 BKN019
     FM270400 02003KT P6SM SCT045 BKN070
     FM270700 00000KT P6SM SCT070
     FM271300 33006KT P6SM FEW250=

USA.gov is the U.S. government's official web portal to all federal, state and local government web resources and services.